Weather History for Moses Lake, WA

Change the Weather History Date:

Sunday, April 6, 2014

  Actual Average Record
Temperature  
Mean Temperature 57 °F 48 °F  
Max Temperature 69 °F 61 °F 74 °F (2007)
Min Temperature 44 °F 36 °F 25 °F (1999)
Degree Days  
Heating Degree Days 8 17  
Month to date heating degree days 81 104  
Since 1 July heating degree days 5226 5276  
Cooling Degree Days 0 0  
Month to date cooling degree days 0 0  
Year to date cooling degree days 0 0  
Growing Degree Days 6 (Base 50)    
Moisture  
Dew Point 33 °F    
Average Humidity 46    
Maximum Humidity 71    
Minimum Humidity 21    
Precipitation  
Precipitation 0.00 in 0.03 in 0.20 in (2003)
Month to date precipitation T 0.15  
Year to date precipitation 1.86 2.87  
Sea Level Pressure  
Sea Level Pressure 30.11 in    
Wind  
Wind Speed 10 mph (WSW)    
Max Wind Speed 18 mph    
Max Gust Speed 24 mph    
Visibility 10 miles    
Events      
T = Trace of Precipitation, MM = Missing Value Source: NWS Daily Summary

Daily Weather History Graph

Daily Weather History Graph

Search for Another Location

Airport:

Trip Planner

Search our weather history database for the weather conditions in past years. The results will help you decide how hot, cold, wet, or windy it might be!

Date:

Astronomy

Apr. 06, 2014 Rise Set
Actual Time 6:26 AM PDT 7:33 PM PDT
Civil Twilight 5:54 AM PDT 8:05 PM PDT
Nautical Twilight 5:17 AM PDT 8:43 PM PDT
Astronomical Twilight 4:37 AM PDT 9:23 PM PDT
Moon 11:19 AM PDT (4/6) 1:46 AM PDT (4/6)
Length of Visible Light 14h 10m
Length of Day
13h 07m
Waxing Crescent, 45% of the Moon is Illuminated
Apr 6
Waxing Crescent
Apr 7
First Quarter
Apr 15
Full
Apr 22
Last Quarter
Apr 28
New

Hourly Weather History & Observations

Time (PDT) Temp. Windchill Dew Point Humidity Pressure Visibility Wind Dir Wind Speed Gust Speed Precip Events Conditions
12:52 AM 48.0 °F - 37.9 °F 68% 29.99 in 10.0 mi WSW 8.1 mph - N/A   Clear
1:52 AM 48.0 °F - 37.0 °F 66% 29.99 in 10.0 mi WSW 10.4 mph - N/A   Clear
2:52 AM 46.0 °F 42.5 °F 36.0 °F 68% 30.00 in 10.0 mi SSW 6.9 mph - N/A   Clear
3:52 AM 44.1 °F 39.5 °F 36.0 °F 73% 30.02 in 10.0 mi West 8.1 mph - N/A   Clear
4:52 AM 46.0 °F 39.9 °F 36.0 °F 68% 30.03 in 10.0 mi WSW 13.8 mph - N/A   Clear
5:52 AM 44.6 °F 38.8 °F 35.6 °F 71% 30.04 in 10.0 mi West 11.5 mph - N/A   Clear
6:52 AM 46.9 °F - 37.0 °F 68% 30.07 in 10.0 mi WSW 6.9 mph - N/A   Clear
7:52 AM 50.0 °F - 36.0 °F 59% 30.09 in 10.0 mi SW 9.2 mph 16.1 mph N/A   Clear
8:52 AM 53.1 °F - 37.0 °F 55% 30.12 in 10.0 mi WSW 10.4 mph - N/A   Clear
9:52 AM 57.0 °F - 36.0 °F 45% 30.12 in 10.0 mi WSW 8.1 mph - N/A   Clear
10:52 AM 61.0 °F - 35.1 °F 38% 30.14 in 10.0 mi WSW 8.1 mph - N/A   Clear
11:52 AM 64.0 °F - 32.0 °F 30% 30.13 in 10.0 mi WSW 11.5 mph - N/A   Clear
12:52 PM 64.9 °F - 32.0 °F 29% 30.14 in 10.0 mi WSW 12.7 mph 18.4 mph N/A   Scattered Clouds
1:52 PM 66.0 °F - 30.0 °F 26% 30.13 in 10.0 mi WSW 13.8 mph 19.6 mph N/A   Clear
2:52 PM 68.0 °F - 27.0 °F 21% 30.12 in 10.0 mi West 11.5 mph - N/A   Scattered Clouds
3:52 PM 68.0 °F - 28.0 °F 22% 30.13 in 10.0 mi West 12.7 mph 17.3 mph N/A   Clear
4:52 PM 68.0 °F - 28.9 °F 23% 30.12 in 10.0 mi SW 10.4 mph - N/A   Clear
5:52 PM 64.9 °F - 30.9 °F 28% 30.14 in 10.0 mi West 8.1 mph - N/A   Clear
6:52 PM 64.0 °F - 34.0 °F 33% 30.14 in 10.0 mi WSW 8.1 mph - N/A   Clear
7:52 PM 60.1 °F - 33.1 °F 36% 30.16 in 10.0 mi West 11.5 mph - N/A   Clear
8:52 PM 57.0 °F - 33.1 °F 40% 30.18 in 10.0 mi West 13.8 mph - N/A   Clear
9:52 PM 55.9 °F - 30.9 °F 39% 30.20 in 10.0 mi Calm Calm - N/A   Clear
10:52 PM 55.0 °F - 28.9 °F 37% 30.21 in 10.0 mi West 15.0 mph 21.9 mph N/A   Clear
11:52 PM 53.1 °F - 30.0 °F 41% 30.22 in 10.0 mi West 9.2 mph - N/A   Clear